CW6242 Weather Reports


time (UTC)temp
C
wind
direction
speed
KPH
gust
KPH
rain 1hr
cm
rain 24hr
cm
rain mn
cm
humidity
%
barometer
mb
20260906105957 28 45 6.4 12.9 0.00 0.00 0.00 68 1020.2
20260906104957 28 45 8.0 14.5 0.00 0.00 0.00 71 1020.4
20260906103957 28 45 6.4 12.9 0.00 0.00 0.00 70 1020.5
20260906102957 28 45 6.4 12.9 0.00 0.00 0.00 70 1020.6
20260906102017 28 45 8.0 14.5 0.00 0.00 0.00 70 1020.6
20260906100956 28 45 8.0 14.5 0.00 0.00 0.00 71 1020.6
20260906100019 28 45 8.0 14.5 0.00 0.00 0.00 71 1020.6
20260906095019 28 45 8.0 16.1 0.00 0.00 0.00 71 1020.7
20260906093959 28 45 9.7 17.7 0.00 0.00 0.00 72 1020.6
20260906093019 28 45 9.7 17.7 0.00 0.00 0.00 72 1020.7
20260906092019 28 45 9.7 17.7 0.00 0.00 0.00 72 1020.7
20260906090958 28 45 8.0 17.7 0.00 0.00 0.00 71 1020.8
20260906090001 27 45 8.0 16.1 0.00 0.00 0.00 73 1020.8
20260906085000 28 45 9.7 16.1 0.00 0.00 0.00 73 1020.8
20260906084001 28 45 8.0 16.1 0.00 0.00 0.00 73 1020.7
20260906083000 27 45 8.0 16.1 0.00 0.00 0.00 73 1020.6
20260906082001 27 45 8.0 17.7 0.00 0.00 0.00 73 1020.6
20260906081000 27 45 8.0 14.5 0.00 0.00 0.00 71 1020.7
20260906080001 27 45 8.0 14.5 0.00 0.00 0.00 72 1020.6
20260906075002 27 45 8.0 14.5 0.00 0.00 0.00 72 1020.6
20260906074002 27 45 6.4 14.5 0.00 0.00 0.00 73 1020.4
20260906073022 27 68 6.4 11.3 0.00 0.00 0.00 73 1020.4
20260906072023 27 23 6.4 14.5 0.00 0.00 0.00 76 1020.2
20260906071002 26 45 6.4 14.5 0.00 0.00 0.00 77 1020.3
20260906070002 26 68 6.4 12.9 0.00 0.00 0.00 76 1020.3
20260906065004 26 45 6.4 11.3 0.00 0.00 0.00 76 1020.2
20260906064024 26 68 6.4 12.9 0.00 0.00 0.00 77 1020.0
20260906063004 26 68 6.4 11.3 0.00 0.00 0.00 77 1020.0
20260906062004 26 68 4.8 12.9 0.00 0.00 0.00 78 1020.0
20260906061004 26 90 3.2 6.4 0.00 0.00 0.00 78 1020.0
20260906060024 25 113 3.2 8.0 0.00 0.00 0.00 79 1020.0
20260906055006 25 158 1.6 4.8 0.00 0.00 0.00 78 1019.9
20260906054006 24 158 3.2 8.0 0.00 0.00 0.00 77 1019.8
20260906053006 23 158 3.2 8.0 0.00 0.00 0.00 77 1019.8
20260906052006 23 180 1.6 4.8 0.00 0.00 0.00 76 1019.7
20260906051026 23 180 1.6 3.2 0.00 0.00 0.00 76 1019.6
20260906050006 23 180 1.6 4.8 0.00 0.00 0.00 75 1019.5
20260906045006 23 180 3.2 6.4 0.00 0.00 0.00 75 1019.5
20260906044048 22 180 3.2 4.8 0.00 0.00 0.00 74 1019.5
20260906043008 22 180 3.2 4.8 0.00 0.00 0.00 76 1019.4
20260906042008 22 180 3.2 4.8 0.00 0.00 0.00 76 1019.4
20260906041008 22 180 3.2 4.8 0.00 0.00 0.00 77 1019.2
20260906040008 23 0.0 1.6 0.00 0.00 0.00 84 1019.3
20260906035008 23 0.0 3.2 0.00 0.00 0.00 84 1019.2
20260906034010 23 90 1.6 3.2 0.00 0.00 0.00 84 1019.1
20260906033010 23 90 1.6 3.2 0.00 0.00 0.00 84 1019.1
20260906032010 23 0.0 3.2 0.00 0.00 0.00 83 1019.0
20260906031030 23 0.0 3.2 0.00 0.00 0.00 83 1019.2
20260906030010 23 0.0 3.2 0.00 0.00 0.00 82 1019.2
20260906025030 23 0.0 3.2 0.00 0.00 0.00 82 1019.2
20260906024012 23 113 1.6 4.8 0.00 0.00 0.00 80 1019.2
20260906023012 23 0.0 3.2 0.00 0.00 0.00 78 1019.3
20260906022012 24 0.0 3.2 0.00 0.00 0.00 77 1019.3
20260906021011 23 0.0 3.2 0.00 0.00 0.00 74 1019.3
20260906020012 23 158 1.6 8.0 0.00 0.00 0.00 70 1019.2
20260906015012 23 158 4.8 9.7 0.00 0.00 0.00 70 1019.3
20260906014013 23 158 3.2 12.9 0.00 0.00 0.00 68 1019.4
20260906013014 23 180 4.8 12.9 0.00 0.00 0.00 68 1019.4
20260906012014 23 203 3.2 6.4 0.00 0.00 0.00 67 1019.6
20260906011034 23 203 1.6 3.2 0.00 0.00 0.00 71 1019.7
20260906010034 23 203 3.2 4.8 0.00 0.00 0.00 71 1019.6
20260906005013 24 0.0 3.2 0.00 0.00 0.00 79 1019.7
20260906004033 25 0.0 1.6 0.00 0.00 0.00 77 1019.7
20260906003016 25 180 1.6 3.2 0.00 0.00 0.00 74 1019.8
20260906002016 23 180 1.6 4.8 0.00 0.00 0.00 64 1019.6
20260906001015 23 180 4.8 8.0 0.00 0.00 0.00 62 1019.5
20260906000015 23 180 3.2 8.0 0.00 0.00 0.00 61 1019.7
20260905235035 23 180 3.2 6.4 0.00 0.00 0.00 61 1019.8
20260905234015 23 180 4.8 6.4 0.00 0.00 0.00 61 1019.9
20260905233018 23 180 3.2 6.4 0.00 0.00 0.00 62 1019.8
20260905231933 23 180 3.2 6.4 0.00 0.00 0.00 61 1019.9
20260905230933 23 180 3.2 6.4 0.00 0.00 0.00 60 1019.8
20260905225933 23 180 3.2 6.4 0.00 0.00 0.00 60 1019.9
20260905224955 23 180 3.2 6.4 0.00 0.00 0.00 62 1019.9
20260905224015 24 180 1.6 6.4 0.00 0.00 0.00 71 1020.0
20260905222935 25 180 1.6 3.2 0.00 0.00 0.00 76 1020.2
20260905221935 25 0.0 1.6 0.00 0.00 0.00 74 1020.2
20260905220935 24 180 1.6 4.8 0.00 0.00 0.00 68 1020.2
20260905215937 24 180 3.2 6.4 0.00 0.00 0.00 63 1020.1
20260905214937 24 180 3.2 4.8 0.00 0.00 0.00 65 1020.0
20260905213936 24 180 3.2 6.4 0.00 0.00 0.00 63 1020.0
20260905212956 23 180 4.8 6.4 0.00 0.00 0.00 65 1020.0
20260905211938 23 180 4.8 8.0 0.00 0.00 0.00 66 1020.1
20260905210938 23 180 3.2 6.4 0.00 0.00 0.00 71 1020.1
20260905205938 25 0.0 1.6 0.00 0.00 0.00 78 1020.3
20260905204938 25 0.0 1.6 0.00 0.00 0.00 77 1020.3
20260905203938 25 0.0 1.6 0.00 0.00 0.00 76 1020.3
20260905202938 24 158 1.6 6.4 0.00 0.00 0.00 74 1020.3
20260905201938 24 135 3.2 8.0 0.00 0.00 0.00 73 1020.3
20260905201000 24 135 3.2 8.0 0.00 0.00 0.00 74 1020.3
20260905195940 24 135 1.6 4.8 0.00 0.00 0.00 76 1020.3
20260905194940 25 135 3.2 9.7 0.00 0.00 0.00 75 1020.3
20260905194000 25 135 4.8 11.3 0.00 0.00 0.00 73 1020.4
20260905192940 24 135 4.8 11.3 0.00 0.00 0.00 73 1020.4
20260905191940 25 135 4.8 12.9 0.00 0.00 0.00 73 1020.3
20260905190942 25 135 4.8 11.3 0.00 0.00 0.00 73 1020.1
20260905185942 25 135 1.6 4.8 0.00 0.00 0.00 73 1020.1
20260905184942 25 45 1.6 3.2 0.00 0.00 0.00 73 1020.0
20260905184002 25 23 1.6 4.8 0.00 0.00 0.00 73 1020.0
20260905182942 25 45 1.6 4.8 0.00 0.00 0.00 73 1019.8
20260905181942 25 45 3.2 6.4 0.00 0.00 0.00 72 1019.7
20260905180944 25 45 3.2 6.4 0.00 0.00 0.00 73 1019.5
20260905175944 25 90 4.8 9.7 0.00 0.00 0.00 73 1019.4
20260905175004 25 90 3.2 9.7 0.00 0.00 0.00 72 1019.4
20260905173944 26 45 3.2 8.0 0.00 0.00 0.00 72 1019.4
20260905172944 26 45 4.8 8.0 0.00 0.00 0.00 72 1019.3
20260905172004 26 45 6.4 11.3 0.00 0.00 0.00 72 1019.4
20260905170946 26 45 4.8 8.0 0.00 0.00 0.00 72 1019.4
20260905165946 26 45 4.8 9.7 0.00 0.00 0.00 72 1019.3
20260905164946 26 45 4.8 9.7 0.00 0.00 0.00 72 1019.3
20260905164026 26 45 4.8 8.0 0.00 0.00 0.00 71 1019.4
20260905162946 26 45 3.2 6.4 0.00 0.00 0.00 71 1019.4
20260905161946 26 23 3.2 8.0 0.00 0.00 0.00 71 1019.4
20260905160946 26 45 4.8 8.0 0.00 0.00 0.00 71 1019.4
20260905155948 26 45 4.8 9.7 0.00 0.00 0.00 71 1019.5
20260905154948 26 45 4.8 9.7 0.00 0.00 0.00 71 1019.5
20260905153948 26 45 4.8 11.3 0.00 0.00 0.00 71 1019.5
20260905152948 26 45 6.4 11.3 0.00 0.00 0.00 71 1019.6
20260905151948 26 45 6.4 11.3 0.00 0.00 0.00 71 1019.6
20260905150947 26 45 6.4 12.9 0.00 0.00 0.00 73 1019.4
20260905145950 26 45 6.4 14.5 0.00 0.00 0.00 74 1019.4
20260905144950 27 45 6.4 12.9 0.00 0.00 0.00 75 1019.5
20260905143950 27 45 8.0 12.9 0.00 0.00 0.00 73 1019.5
20260905142950 27 45 9.7 16.1 0.00 0.00 0.00 72 1019.5
20260905141949 27 45 9.7 17.7 0.00 0.00 0.00 71 1019.5
20260905140950 27 45 9.7 17.7 0.00 0.00 0.00 71 1019.4
20260905135952 27 45 9.7 19.3 0.00 0.00 0.00 73 1019.4
20260905134951 27 45 9.7 17.7 0.00 0.00 0.00 71 1019.3
20260905134012 27 45 9.7 16.1 0.00 0.00 0.00 70 1019.3
20260905132951 27 45 8.0 14.5 0.00 0.00 0.00 69 1019.3
20260905131951 27 45 9.7 16.1 0.00 0.00 0.00 70 1019.4
20260905130951 28 45 9.7 16.1 0.00 0.00 0.00 70 1019.5
20260905125953 28 45 8.0 16.1 0.00 0.00 0.00 68 1019.6
20260905125034 28 45 8.0 14.5 0.00 0.00 0.00 69 1019.6
20260905123953 28 45 8.0 14.5 0.00 0.00 0.00 71 1019.5
20260905122953 28 45 8.0 17.7 0.00 0.00 0.00 71 1019.6
20260905122014 28 45 6.4 12.9 0.00 0.00 0.00 72 1019.7
20260905120953 28 45 6.4 14.5 0.00 0.00 0.00 71 1019.7
20260905115953 28 45 6.4 14.5 0.00 0.00 0.00 71 1019.8
20260905114955 28 45 8.0 14.5 0.00 0.00 0.00 71 1019.8
20260905113955 28 45 6.4 14.5 0.00 0.00 0.00 72 1019.8
20260905113015 28 45 6.4 11.3 0.00 0.00 0.00 71 1019.9
20260905111955 28 45 6.4 9.7 0.00 0.00 0.00 71 1019.9
20260905110955 28 68 6.4 16.1 0.00 0.00 0.00 72 1020.0